THOR ABLESTAR DEB, 333

Orbit data source: Space-Track

THOR ABLESTAR DEB, 333 is space debris in LEO originally from a launch on Thu, 29 Jun 1961 UTC launched from the Air Force Eastern Test Range (AFETR). Debris objects in space refer to the collection of defunct objects orbiting the Earth. Examples of debris include non-operational satellites, rocket bodies, and fragments generated from explosions, collisions, or faulty payload assembly.

Loading next visibility...
Identifier
333, 1961-015DK
Orbit
LEO
Country
Flag of USUS
Related business
Manufacturer
Unknown
Mission
Spacecraft
Bus & Motor
Unknown
Mass
Unknown
Launch date (UTC)
1961-06-29 (64 years ago)
Launch vehicle
Unknown
Launch site
Air Force Eastern Test Range (AFETR)
Object type
Payload
Rocket body
Debris
Shape & HBR
Unknown shape, 0.1 m
Radar Cross Section
Small (<0.1 m²)

Expand to show TLE details & history
Last TLE update: 6 hours ago

TLE from 6 hours ago
0 THOR ABLESTAR DEB
1 00333U 61015DK  25291.29086816  .00013797  00000-0  17929-2 0  9998
2 00333  66.7000 114.2840 0031217 126.5962 233.8041 14.80538747352946
Epoch: 2025-10-18T06:58Z
TLE epoch observation values (Epoch: 2025-10-18T06:58:51.009Z)
Latitude
-0.00002°
Longitude
-17.45254°
Altitude
642.742 km
Speed
7.53 km/s
True Right ascension
07h 37m 08s
True Declination
0° 00' 00"
Sunlit
Object was in daylight at epoch
Visualization orbit readout
Latitude
Unknown
Longitude
Unknown
Altitude
Unknown
Speed
Unknown
Apparent Right ascension
Unknown
Apparent Declination
Unknown
Sunlit
N/A
Visualization observer readout
Local Sidereal Time
08:12:41
Azimuth
Unknown
Elevation
Unknown
Doppler factor
Unknown
Orbital elements
Apogee altitude
647.825 km
Perigee altitude
604.096 km
Semi-major axis
7,004.098 km
Eccentricity
0.00312
Inclination
66.7°
RAAN
114.284°
Arg. of periapsis
126.5962°
True anomaly
233.51608°
Mean anomaly
233.8041°
Eccentric anomaly
233.66003°
Mean motion
3.70267 °/min
Orbital period
97.23 mins
BSTAR
0.0017929

Documentation

Showing up to 5 results
|